Date,TemperatureHighF,TemperatureAvgF,TemperatureLowF,DewpointHighF,DewpointAvgF,DewpointLowF,HumidityHigh,HumidityAvg,HumidityLow,PressureMaxIn,PressureMinIn,WindSpeedMaxMPH,WindSpeedAvgMPH,GustSpeedMaxMPH,PrecipitationSumIn
2013-1-1,19.2,6.1,-3.1,12.0,-0.6,-10.7,78,73,67,30.85,30.65,0,0,0,0.00
2013-1-2,22.2,16.4,9.2,14.1,9.5,2.4,79,74,68,30.81,30.65,1,0,3,0.00
2013-1-3,18.3,14.6,11.1,10.9,7.9,4.2,80,74,68,30.65,30.49,1,0,4,0.02
2013-1-4,23.9,15.1,9.2,14.9,8.5,1.8,80,75,65,30.61,30.48,0,0,0,0.00
2013-1-5,24.7,19.4,12.3,18.3,13.8,6.3,81,78,75,30.58,30.28,0,0,1,0.06
2013-1-6,28.2,23.6,18.9,21.9,18.0,13.4,83,79,74,30.31,30.16,0,0,2,0.08
2013-1-7,29.0,24.6,20.0,22.2,19.2,15.4,84,80,74,30.17,29.91,0,0,2,0.14
2013-1-8,29.7,25.5,19.5,25.2,21.3,14.5,86,84,80,30.22,29.82,0,0,1,0.59
2013-1-9,37.0,28.9,20.8,32.3,25.0,16.1,88,85,81,29.89,29.66,1,0,3,0.11
2013-1-10,31.8,24.7,15.7,23.1,14.5,8.0,87,66,45,30.16,29.88,3,1,14,0.00
2013-1-11,28.1,17.9,1.5,12.0,6.6,-5.4,78,62,44,30.44,30.14,4,1,13,0.00
2013-1-12,16.9,1.9,-7.5,7.2,-5.2,-15.3,79,71,64,30.63,30.42,0,0,1,0.00
2013-1-13,18.4,9.8,0.5,8.2,2.7,-7.3,79,73,61,30.68,30.53,0,0,1,0.00
2013-1-14,24.1,15.8,6.5,12.9,8.3,0.3,79,72,60,30.64,30.44,0,0,1,0.00
2013-1-15,22.4,7.9,0.7,13.1,1.2,-6.6,80,73,65,30.83,30.62,0,0,1,0.00
2013-1-16,19.1,10.0,0.7,11.9,3.8,-6.5,80,76,72,30.86,30.75,0,0,1,0.00
2013-1-17,18.3,11.8,5.4,10.5,5.0,-1.7,79,74,69,30.79,30.54,0,0,1,0.00
2013-1-18,23.3,11.0,1.5,15.0,4.5,-5.7,80,74,68,30.56,30.44,0,0,2,0.00
2013-1-19,24.1,8.6,0.0,15.2,1.7,-7.7,81,73,65,30.69,30.56,0,0,2,0.00
2013-1-20,24.8,8.7,-0.4,17.6,2.3,-8.2,83,74,69,30.75,30.62,0,0,2,0.00
2013-1-21,22.4,7.0,-2.6,13.5,0.3,-10.4,82,73,68,30.62,30.50,0,0,1,0.00
2013-1-22,18.8,7.8,-2.8,10.8,0.8,-11.2,79,72,67,30.55,30.34,0,0,2,0.00
2013-1-23,26.1,19.8,11.7,20.8,14.3,5.7,82,79,74,30.34,30.08,0,0,1,0.06
2013-1-24,25.7,21.5,14.6,19.4,16.3,9.2,85,80,76,30.39,30.17,0,0,3,0.00
2013-1-25,32.4,20.0,7.4,23.3,14.3,1.1,84,79,66,30.29,30.10,0,0,2,0.00
2013-1-26,29.7,19.7,4.7,22.1,13.3,-1.8,82,76,63,30.15,30.04,0,0,2,0.02
2013-1-27,26.3,22.3,17.5,19.8,16.5,11.8,85,78,73,30.14,30.07,0,0,1,0.00
2013-1-28,26.1,23.0,20.0,18.8,16.8,13.9,82,77,72,30.09,29.98,0,0,1,0.01
2013-1-29,38.3,27.7,18.1,33.0,22.4,13.0,90,80,71,30.30,30.00,3,0,9,0.00
2013-1-30,47.3,40.9,32.2,32.3,28.9,25.7,82,63,49,30.29,30.16,3,1,15,0.00
2013-1-31,41.8,32.8,26.9,30.2,26.5,23.0,87,78,61,30.33,30.23,0,0,2,0.00
2013-2-1,44.8,30.7,21.8,30.1,24.3,17.4,88,78,52,30.55,30.31,0,0,2,0.00
2013-2-2,37.9,24.4,16.4,26.2,18.4,11.0,85,78,60,30.61,30.36,0,0,1,0.00
2013-2-3,34.3,24.8,15.7,25.0,18.4,10.1,84,76,66,30.36,30.23,0,0,3,0.00
2013-2-4,40.3,31.4,28.2,28.8,25.3,23.2,85,78,61,30.20,30.01,0,0,1,0.00
2013-2-5,38.5,33.5,30.1,30.7,28.1,25.2,88,80,73,30.01,29.83,0,0,1,0.00
2013-2-6,37.8,33.8,31.6,29.1,28.1,26.2,88,80,68,30.08,29.93,0,0,1,0.02
2013-2-7,40.8,33.1,26.6,35.1,27.8,18.2,89,81,57,30.17,29.93,1,0,5,0.08
2013-2-8,39.9,30.6,24.7,23.7,18.9,15.2,74,62,43,30.30,30.16,2,0,12,0.00
2013-2-9,43.8,31.4,20.3,28.8,21.4,15.4,84,68,47,30.31,30.13,3,0,13,0.00
2013-2-10,42.6,29.1,21.1,27.3,21.4,15.9,85,74,46,30.37,30.24,0,0,2,0.00
2013-2-11,34.6,24.2,14.8,25.1,18.3,9.3,85,78,67,30.35,30.26,0,0,2,0.00
2013-2-12,33.7,29.2,24.7,27.0,24.1,19.8,87,81,74,30.41,30.20,0,0,3,0.00
2013-2-13,45.8,38.0,25.3,25.9,23.7,19.9,90,57,39,30.42,30.17,2,0,16,0.00
2013-2-14,44.3,34.3,26.6,28.8,23.6,18.4,85,65,49,30.63,30.43,2,0,9,0.00
2013-2-15,43.2,29.7,21.1,29.1,22.8,15.5,84,76,53,30.65,30.36,0,0,3,0.00
2013-2-16,40.1,31.4,21.4,35.1,25.4,16.8,88,79,60,30.37,30.04,3,0,15,0.07
2013-2-17,43.5,35.6,24.5,25.9,22.2,16.4,78,59,34,30.18,30.08,2,0,10,0.00
2013-2-18,34.6,28.0,20.2,28.0,21.4,14.7,85,76,56,30.18,29.87,0,0,4,0.00
2013-2-19,40.9,32.2,25.8,26.9,21.0,14.0,86,64,43,30.02,29.81,2,0,12,0.00
2013-2-20,37.8,27.3,16.9,20.9,14.3,9.7,80,59,36,30.12,30.00,2,0,13,0.00
2013-2-21,38.5,26.5,14.9,25.4,17.3,9.8,83,70,46,30.11,30.00,0,0,3,0.00
2013-2-22,35.8,29.3,22.7,30.9,24.5,18.0,89,82,77,30.02,29.61,1,0,8,0.16
2013-2-23,43.3,33.3,23.9,30.1,23.4,18.3,89,69,39,30.32,29.76,3,0,14,0.00
2013-2-24,39.3,30.6,23.9,25.7,21.5,18.5,80,69,46,30.35,30.06,0,0,5,0.00
2013-2-25,40.5,34.8,30.3,30.3,25.4,18.9,87,70,46,30.19,29.91,3,0,11,0.07
2013-2-26,43.3,34.0,24.4,25.7,21.6,16.8,76,61,37,30.36,30.18,1,0,9,0.00
2013-2-27,43.5,33.8,24.7,27.1,24.2,19.8,85,69,42,30.35,30.24,0,0,3,0.00
2013-2-28,38.5,33.9,28.2,33.3,28.4,23.1,87,80,66,30.40,30.29,0,0,2,0.01
2013-3-1,44.6,36.1,30.3,36.1,31.6,26.7,89,84,69,30.39,30.25,1,0,3,0.00
2013-3-2,47.6,35.8,26.7,34.4,28.0,12.4,89,74,38,30.31,29.95,2,0,12,0.01
2013-3-3,43.6,37.1,31.8,25.2,19.6,11.1,70,50,29,30.30,30.00,4,1,24,0.00
2013-3-4,39.2,34.1,29.3,24.9,22.4,20.2,73,62,49,30.36,30.15,1,0,6,0.00
2013-3-5,40.6,33.0,25.8,25.7,22.2,19.7,81,65,43,30.16,29.93,0,0,5,0.00
2013-3-6,38.6,34.8,32.4,32.0,29.4,24.2,87,80,67,29.93,29.69,0,0,1,0.06
2013-3-7,41.2,36.3,32.9,32.3,30.7,28.5,87,80,70,30.16,29.86,0,0,1,0.00
2013-3-8,46.5,34.4,25.8,29.5,25.3,21.0,86,71,47,30.27,30.06,0,0,4,0.00
2013-3-9,48.2,33.8,20.0,28.7,21.7,15.4,85,63,36,30.47,30.27,1,0,7,0.00
2013-3-10,47.4,38.9,31.5,29.1,24.9,19.7,73,58,42,30.45,30.30,2,0,9,0.00
2013-3-11,47.1,39.3,27.3,29.0,20.0,12.9,76,48,27,30.43,30.24,3,0,11,0.00
2013-3-12,49.2,39.2,34.3,33.9,30.8,28.1,85,73,52,30.24,30.00,0,0,3,0.00
2013-3-13,54.1,39.1,29.7,36.4,31.5,26.4,89,75,51,30.17,30.05,0,0,3,0.00
2013-3-14,55.1,43.2,35.5,41.9,34.4,28.3,90,73,39,30.14,29.97,2,0,10,0.00
2013-3-15,52.2,39.0,30.0,39.7,30.5,26.1,87,73,43,30.22,30.06,2,0,10,0.00
2013-3-16,50.1,41.0,30.4,35.7,28.1,16.4,89,62,43,30.11,29.72,2,0,11,0.00
2013-3-17,44.1,37.9,33.5,22.4,17.6,11.7,60,44,29,30.07,29.76,3,1,20,0.00
2013-3-18,43.8,33.9,26.3,30.0,20.9,15.9,85,60,37,30.27,30.05,2,0,18,0.08
2013-3-19,43.8,33.1,22.9,29.8,19.7,12.1,89,60,34,30.35,29.86,2,0,11,0.07
2013-3-20,41.6,35.1,32.4,35.8,30.7,21.9,90,84,63,29.86,29.51,2,0,10,0.40
2013-3-21,42.8,34.7,26.4,23.6,17.9,10.2,71,52,27,30.17,29.83,4,1,16,0.00
2013-3-22,43.5,30.9,20.8,22.6,16.7,8.8,76,58,27,30.40,30.15,5,1,17,0.00
2013-3-23,45.7,33.4,18.6,22.0,14.9,10.2,72,49,26,30.49,30.30,2,0,10,0.00
2013-3-24,44.5,31.3,18.6,23.6,17.2,12.0,76,58,35,30.47,30.27,1,0,5,0.00
2013-3-25,49.2,33.6,21.0,26.5,19.4,13.4,81,60,26,30.31,30.07,0,0,3,0.00
2013-3-26,54.1,36.9,22.5,30.2,23.1,17.7,83,61,29,30.16,29.98,0,0,4,0.00
2013-3-27,56.6,40.6,29.1,31.8,27.6,24.4,85,63,31,30.08,29.98,0,0,5,0.00
2013-3-28,58.6,42.3,30.0,35.7,30.4,25.3,85,65,34,30.15,30.03,1,0,5,0.00
2013-3-29,63.4,45.1,29.8,34.8,29.1,24.4,87,59,24,30.28,30.15,3,1,12,0.00
2013-3-30,65.2,45.3,29.5,36.0,29.5,24.9,84,58,25,30.39,30.16,1,0,5,0.00
2013-3-31,70.6,46.5,29.5,37.9,30.4,24.7,85,59,21,30.23,29.97,1,0,4,0.00
2013-4-1,74.9,52.0,31.5,36.5,32.4,26.9,85,53,21,30.08,29.90,3,0,11,0.00
2013-4-2,67.3,54.8,41.9,35.8,32.0,24.9,69,45,22,30.10,29.99,2,1,14,0.00
2013-4-3,67.3,53.6,42.9,40.4,32.8,29.6,66,47,27,30.12,29.96,3,1,13,0.00
2013-4-4,50.4,45.9,40.6,44.9,39.1,32.8,90,77,59,29.99,29.70,0,0,1,0.09
2013-4-5,56.9,48.1,43.3,44.9,40.8,37.4,90,77,50,29.80,29.72,1,0,5,0.02
2013-4-6,56.7,44.9,34.7,41.2,33.2,21.7,90,67,27,29.86,29.70,4,1,17,0.03
2013-4-7,44.5,37.9,32.9,37.4,31.4,26.7,89,77,60,29.80,29.60,2,0,9,0.43
2013-4-8,56.9,45.3,34.6,36.5,31.2,26.2,82,60,33,30.25,29.79,2,0,12,0.00
2013-4-9,54.5,43.6,31.6,40.8,32.8,27.3,87,68,44,30.35,30.17,1,0,11,0.00
2013-4-10,54.1,44.8,38.5,43.9,34.8,27.0,89,70,40,30.18,29.85,6,1,23,0.10
2013-4-11,56.6,42.9,30.1,33.2,25.1,17.6,85,54,24,30.19,30.11,3,1,14,0.00
2013-4-12,50.8,39.6,30.4,32.3,26.7,23.0,80,61,40,30.16,29.57,1,0,7,0.00
2013-4-13,50.1,39.8,29.5,30.5,21.6,15.9,87,50,29,29.94,29.55,4,1,16,0.02
2013-4-14,48.9,38.3,28.4,31.7,23.6,17.7,75,57,30,29.99,29.91,3,0,11,0.00
2013-4-15,46.5,37.1,32.2,35.1,31.5,27.6,88,80,58,30.24,29.95,3,0,9,0.06
2013-4-16,50.7,39.0,30.3,32.7,27.0,15.6,88,65,32,30.46,30.24,2,0,9,0.00
2013-4-17,56.2,41.5,26.6,28.7,24.0,19.7,81,54,26,30.51,30.33,3,0,11,0.00
2013-4-18,60.5,47.7,35.3,36.7,31.4,26.6,76,55,33,30.37,30.12,2,0,11,0.00
2013-4-19,63.1,48.7,35.0,38.4,33.6,30.7,86,59,34,30.12,29.93,3,0,16,0.00
2013-4-20,59.9,51.6,44.2,33.8,29.4,25.7,63,43,28,30.08,29.99,3,1,15,0.00
2013-4-21,46.8,38.6,29.8,40.0,30.8,25.8,88,74,49,30.45,30.08,1,0,8,0.36
2013-4-22,60.9,43.2,26.4,25.9,20.5,9.9,87,48,15,30.60,30.41,3,1,11,0.00
2013-4-23,61.5,44.5,31.2,29.2,24.8,17.1,76,50,20,30.43,30.24,4,0,11,0.00
2013-4-24,68.6,49.6,29.8,31.0,25.9,16.5,82,46,14,30.39,29.98,2,0,15,0.00
2013-4-25,71.3,57.8,42.1,36.6,31.3,23.9,60,38,23,30.04,29.92,5,2,18,0.00
2013-4-26,74.0,58.4,42.5,40.7,32.1,23.1,77,42,16,30.15,30.04,4,1,18,0.00
2013-4-27,66.4,53.4,41.3,37.9,31.7,24.5,68,46,22,30.05,29.93,4,1,18,0.00
2013-4-28,61.3,49.4,36.5,33.5,28.8,23.0,76,48,26,30.08,29.80,4,1,15,0.00
2013-4-29,51.7,42.3,33.5,37.0,27.0,15.9,90,58,26,30.05,29.74,3,1,13,0.06
2013-4-30,52.2,39.0,26.1,27.6,21.5,16.0,82,53,25,30.46,30.05,4,1,18,0.00
2013-5-1,62.0,44.2,26.3,32.4,23.3,17.2,79,49,20,30.61,30.45,1,0,8,0.00
2013-5-2,69.4,52.9,32.5,34.9,29.8,24.5,87,47,22,30.62,30.29,1,0,7,0.00
2013-5-3,74.9,58.8,43.1,37.6,32.3,24.5,72,41,17,30.39,30.19,4,1,15,0.00
2013-5-4,77.0,56.3,35.3,41.9,33.7,28.8,83,48,18,30.37,30.06,2,0,6,0.00
2013-5-5,81.4,58.5,35.9,40.2,33.9,25.3,86,47,13,30.13,29.83,1,0,9,0.00
2013-5-6,86.5,63.1,38.2,41.9,35.5,29.3,86,44,14,29.97,29.69,2,0,14,0.00
2013-5-7,89.3,70.4,51.4,44.1,38.7,34.1,61,35,16,29.83,29.71,3,0,13,0.00
2013-5-8,87.6,69.1,49.8,47.9,38.7,31.8,72,37,15,30.00,29.83,2,0,12,0.00
2013-5-9,91.0,69.4,47.0,38.5,31.4,20.6,58,28,9,30.11,29.94,2,0,13,0.00
2013-5-10,88.8,67.1,44.3,45.7,35.8,25.4,74,37,11,30.15,30.02,3,0,11,0.00
2013-5-11,84.5,67.2,50.2,47.6,41.1,34.0,69,42,17,30.11,29.92,1,0,5,0.00
2013-5-12,75.1,60.5,48.9,51.3,43.3,38.4,79,56,28,29.99,29.89,3,0,17,0.00
2013-5-13,67.8,52.0,36.2,47.2,40.7,33.5,90,68,29,30.08,29.81,4,0,16,0.33
2013-5-14,64.7,49.2,32.8,39.6,32.4,27.3,92,58,27,30.20,30.04,3,1,13,0.00
2013-5-15,68.1,53.0,37.2,48.9,35.9,29.1,81,55,27,30.11,29.88,2,0,11,0.00
2013-5-16,64.8,55.0,47.3,49.6,43.7,39.8,88,67,42,29.94,29.86,3,0,12,0.01
2013-5-17,69.8,53.1,39.3,52.4,42.4,35.6,92,70,30,29.94,29.83,3,0,11,0.08
2013-5-18,67.3,57.2,50.8,43.1,37.3,33.1,62,48,31,30.17,29.92,3,1,12,0.00
2013-5-19,72.0,59.1,47.3,40.3,36.3,33.3,60,44,27,30.26,30.16,3,1,13,0.00
2013-5-20,72.7,57.0,38.3,45.9,38.9,34.5,89,55,28,30.28,29.81,2,0,10,0.00
2013-5-21,51.9,44.5,35.0,47.0,40.9,32.4,91,87,67,29.84,29.64,3,0,10,0.96
2013-5-22,47.7,40.8,32.8,42.1,37.2,30.5,92,87,69,30.04,29.84,1,0,6,0.22
2013-5-23,55.7,44.7,36.9,43.9,38.4,34.0,91,80,51,30.07,29.99,2,0,7,0.11
2013-5-24,62.4,47.8,32.7,42.8,36.4,30.1,92,68,35,30.04,29.92,1,0,7,0.00
2013-5-25,61.8,47.5,33.2,48.0,37.9,30.9,92,72,38,30.03,29.95,2,0,6,0.00
2013-5-26,63.2,51.2,38.9,50.1,41.0,36.2,91,70,46,30.01,29.89,2,0,7,0.00
2013-5-27,59.2,51.4,43.5,46.2,42.2,37.9,90,71,54,29.92,29.76,2,0,13,0.02
2013-5-28,63.4,54.2,43.3,49.5,43.8,35.8,92,70,40,29.81,29.71,2,0,8,0.03
2013-5-29,55.9,48.8,42.1,49.8,43.9,37.1,90,83,67,29.88,29.68,1,0,5,0.21
2013-5-30,66.8,51.2,33.8,44.5,35.0,28.5,93,59,28,30.15,29.87,4,1,13,0.00
2013-5-31,70.1,54.6,38.6,43.4,35.4,29.5,83,53,25,30.25,30.15,2,0,9,0.00
2013-6-1,72.3,55.0,40.1,45.9,39.8,36.3,88,60,28,30.22,29.96,2,0,11,0.00
2013-6-2,70.1,57.6,46.0,43.8,39.8,33.7,79,54,28,30.01,29.90,4,1,14,0.00
2013-6-3,73.3,58.4,40.2,45.6,39.8,33.6,91,55,27,30.07,29.96,4,1,15,0.00
2013-6-4,79.4,61.5,41.9,51.4,42.7,38.0,89,55,25,30.15,29.96,1,0,6,0.00
2013-6-5,81.1,64.4,45.5,51.6,45.2,40.9,87,54,25,30.03,29.92,2,0,11,0.00
2013-6-6,85.7,69.2,49.9,47.0,41.3,34.6,75,40,19,30.00,29.83,2,0,9,0.00
2013-6-7,76.8,67.5,57.2,50.3,37.4,28.6,45,33,24,29.98,29.82,4,1,21,0.00
2013-6-8,80.5,64.2,45.2,43.5,36.5,30.3,74,38,18,30.06,29.90,3,1,15,0.00
2013-6-9,74.7,61.0,44.2,38.6,34.3,29.9,73,40,20,29.98,29.85,2,0,13,0.00
2013-6-10,76.5,62.6,44.8,44.6,34.8,27.9,67,38,20,29.93,29.67,2,0,11,0.00
2013-6-11,71.8,58.0,47.9,47.1,39.8,33.2,80,52,34,29.99,29.72,6,1,18,0.09
2013-6-12,68.3,53.3,37.3,44.2,36.6,28.4,87,57,26,30.08,29.97,3,0,14,0.02
2013-6-13,71.5,57.1,42.1,40.9,37.5,33.1,79,51,27,30.09,30.00,3,1,13,0.00
2013-6-14,73.2,61.1,48.2,42.1,37.7,34.5,66,44,27,30.10,29.98,3,0,13,0.00
2013-6-15,78.1,60.4,38.9,52.6,41.2,34.9,88,54,26,30.07,29.90,1,0,6,0.00
2013-6-16,81.8,64.7,45.7,60.2,44.8,36.8,84,53,22,30.04,29.89,3,0,14,0.02
2013-6-17,76.7,64.2,49.9,57.6,48.1,44.4,85,58,34,29.98,29.80,2,0,13,0.05
2013-6-18,67.8,59.1,52.2,54.5,48.0,42.3,90,68,50,29.89,29.81,1,0,11,0.06
2013-6-19,66.4,57.6,52.6,47.7,43.0,39.3,81,59,39,29.86,29.77,2,1,16,0.01
2013-6-20,59.3,53.9,49.4,46.9,41.7,37.9,76,64,50,30.01,29.77,1,0,12,0.02
2013-6-21,67.3,58.7,48.9,51.8,44.4,37.3,82,60,44,30.07,30.01,2,0,12,0.00
2013-6-22,74.2,58.8,42.2,57.1,48.7,39.5,92,72,41,30.09,29.88,1,0,7,0.05
2013-6-23,72.5,62.8,51.9,56.4,50.8,41.6,92,68,39,29.91,29.60,1,0,4,0.01
2013-6-24,62.3,56.8,51.7,56.8,53.2,48.8,92,88,74,29.68,29.55,0,0,4,0.70
2013-6-25,64.2,53.7,42.3,56.0,49.3,39.9,93,86,61,29.84,29.68,1,0,4,0.22
2013-6-26,69.3,57.6,46.0,58.4,49.5,42.4,93,76,40,30.09,29.84,1,0,6,0.09
2013-6-27,70.8,58.7,47.7,61.1,51.6,44.3,91,78,57,30.22,30.09,0,0,2,0.03
2013-6-28,83.0,67.7,54.4,63.6,56.0,51.3,90,69,39,30.24,30.02,1,0,4,0.00
2013-6-29,89.5,68.2,55.0,64.4,57.0,48.7,93,72,26,30.07,29.91,3,0,11,0.00
2013-6-30,91.4,73.8,52.9,60.8,54.4,46.5,93,57,23,30.05,29.89,1,0,7,0.00
2013-7-1,95.9,74.4,54.7,62.5,55.0,45.9,91,57,20,30.03,29.83,1,0,4,0.00
2013-7-2,99.2,78.8,58.1,60.4,52.3,42.3,83,46,15,29.94,29.82,2,0,13,0.00
2013-7-3,91.0,76.1,61.0,49.1,42.5,35.1,57,32,17,29.98,29.81,2,0,11,0.00
2013-7-4,83.8,72.8,61.3,44.1,36.4,23.2,44,27,19,29.90,29.77,3,1,16,0.00
2013-7-5,85.5,71.7,56.3,50.3,44.8,40.3,60,40,23,29.85,29.69,2,1,13,0.00
2013-7-6,84.7,71.5,59.6,50.9,46.0,40.0,64,43,23,29.88,29.73,2,0,9,0.00
2013-7-7,83.8,63.4,52.3,60.0,51.1,41.9,91,69,25,29.90,29.77,2,0,11,0.55
2013-7-8,86.3,68.0,51.6,54.4,50.0,42.1,92,59,24,30.01,29.87,4,0,13,0.00
2013-7-9,88.0,69.6,51.4,61.3,50.9,44.9,90,56,24,30.10,29.88,0,0,5,0.00
2013-7-10,87.4,71.1,51.3,53.0,44.9,33.0,87,45,17,29.93,29.73,4,1,14,0.00
2013-7-11,78.6,65.9,54.4,41.2,35.0,28.8,55,33,18,29.90,29.75,2,0,12,0.00
2013-7-12,75.4,62.4,52.2,44.4,36.4,30.7,61,39,21,30.00,29.85,2,0,12,0.00
2013-7-13,80.3,64.8,49.8,47.6,40.0,32.1,70,44,20,30.10,29.98,2,0,12,0.00
2013-7-14,86.3,67.2,43.9,43.7,37.9,22.7,86,41,10,30.11,29.86,2,0,12,0.00
2013-7-15,82.0,63.6,52.0,41.8,38.2,34.8,60,41,19,30.05,29.92,2,1,10,0.00
2013-7-16,89.3,71.2,45.1,51.0,40.6,30.7,79,39,14,30.05,29.80,1,0,4,0.00
2013-7-17,90.1,72.1,57.3,57.9,49.6,41.8,90,50,24,30.01,29.83,2,0,11,0.04
2013-7-18,90.5,73.7,53.2,56.2,48.0,37.0,82,45,24,30.12,29.93,1,0,9,0.00
2013-7-19,96.8,76.1,53.1,47.3,39.1,25.3,62,31,9,30.05,29.85,1,0,7,0.00
2013-7-20,95.1,77.5,55.4,47.0,40.1,30.3,63,30,11,29.92,29.74,2,0,14,0.00
2013-7-21,95.6,79.7,67.1,48.5,44.0,37.5,44,30,15,29.78,29.62,3,1,13,0.00
2013-7-22,87.6,73.1,64.3,46.3,42.3,39.8,47,34,22,29.81,29.71,3,1,12,0.00
2013-7-23,96.3,82.7,58.6,50.4,43.5,39.1,62,28,15,29.94,29.76,2,0,11,0.00
2013-7-24,98.5,79.7,62.1,45.2,39.0,23.1,44,26,8,29.92,29.77,3,1,16,0.00
2013-7-25,98.7,82.7,69.9,42.5,34.9,20.0,31,20,8,29.92,29.81,3,1,18,0.00
2013-7-26,94.9,78.0,55.9,41.4,35.5,30.8,48,24,11,30.01,29.88,2,0,14,0.00
2013-7-27,89.9,74.6,60.9,42.3,33.3,23.8,38,23,11,29.99,29.76,3,1,12,0.00
2013-7-28,86.5,68.9,53.3,55.6,43.6,34.3,90,46,17,29.92,29.74,3,1,15,0.07
2013-7-29,84.7,64.3,47.9,61.3,48.0,37.5,93,64,21,29.97,29.82,2,0,10,0.09
2013-7-30,86.5,68.1,48.8,53.8,45.3,35.8,88,51,18,30.09,29.96,3,0,11,0.00
2013-7-31,89.9,69.2,50.8,53.4,45.2,38.1,78,47,17,30.12,29.93,4,0,19,0.00
2013-8-1,85.7,67.8,56.3,55.3,48.4,37.5,81,53,21,29.95,29.77,2,0,13,0.04
2013-8-2,72.5,64.4,57.8,57.7,52.5,47.8,90,67,46,30.02,29.85,2,0,10,0.08
2013-8-3,82.8,68.7,52.0,55.7,51.9,48.5,90,58,32,30.09,29.94,2,0,8,0.00
2013-8-4,82.8,65.6,54.7,60.1,54.4,50.4,91,70,37,30.04,29.93,2,0,12,0.20
2013-8-5,93.4,69.9,48.5,58.3,49.1,39.6,93,57,18,30.04,29.80,1,0,9,0.01
2013-8-6,93.8,74.1,53.6,51.6,45.2,32.6,82,42,13,29.94,29.77,2,0,7,0.00
2013-8-7,95.4,76.7,56.5,46.8,43.2,37.1,65,34,15,29.91,29.75,2,1,10,0.00
2013-8-8,94.7,80.0,68.9,50.4,45.5,35.5,46,32,13,29.89,29.73,3,1,14,0.00
2013-8-9,96.6,77.2,58.0,51.9,47.3,41.0,74,40,15,29.89,29.71,1,0,7,0.00
2013-8-10,90.1,72.6,60.7,61.9,52.2,45.0,92,52,26,30.00,29.75,3,0,6,0.21
2013-8-11,84.9,70.4,57.3,59.4,54.5,47.7,92,61,31,30.01,29.83,3,0,6,0.41
2013-8-12,86.7,69.3,51.6,56.8,51.1,44.9,92,57,25,29.99,29.85,2,0,5,0.00
2013-8-13,89.5,71.3,54.7,53.2,49.0,41.4,86,51,20,30.01,29.87,1,0,3,0.00
2013-8-14,87.0,70.3,50.8,56.3,47.7,44.0,87,50,23,29.97,29.78,2,0,5,0.00
2013-8-15,81.2,68.8,56.5,64.1,53.3,43.0,91,62,32,29.95,29.80,3,0,5,0.18
2013-8-16,87.4,66.8,47.1,53.3,48.7,43.6,93,59,26,30.02,29.86,2,0,4,0.00
2013-8-17,83.8,68.7,55.3,53.5,48.1,43.6,81,51,26,29.97,29.86,3,0,4,0.00
2013-8-18,86.1,67.2,47.7,49.0,45.3,39.5,84,50,21,30.05,29.91,3,0,4,0.00
2013-8-19,80.9,65.4,52.0,49.3,44.1,40.3,76,49,27,30.01,29.93,2,0,4,0.00
2013-8-20,84.5,68.3,55.6,41.7,38.3,32.4,58,36,16,30.06,29.93,3,1,5,0.00
2013-8-21,87.2,65.1,44.5,45.3,40.4,36.3,83,46,17,30.12,29.92,1,0,4,0.00
2013-8-22,91.0,69.1,45.7,49.2,43.0,36.2,84,45,16,30.00,29.72,1,0,4,0.00
2013-8-23,79.0,67.9,57.6,58.1,50.8,45.0,90,56,36,29.84,29.67,2,0,5,0.06
2013-8-24,78.1,68.6,54.4,52.1,45.8,38.0,72,45,27,29.81,29.68,3,1,6,0.00
2013-8-25,81.4,66.9,55.0,48.4,43.2,39.7,64,44,26,29.89,29.76,2,0,6,0.00
2013-8-26,71.8,61.3,56.6,59.3,53.0,46.3,90,75,49,29.92,29.77,1,0,3,0.12
2013-8-27,75.6,60.6,49.6,59.2,51.8,47.1,92,75,39,29.98,29.82,0,0,2,0.02
2013-8-28,73.9,61.0,52.8,61.8,54.5,49.0,91,80,53,29.92,29.80,2,0,4,0.11
2013-8-29,69.6,60.4,56.2,60.0,56.0,52.9,92,86,64,30.00,29.87,2,0,5,0.44
2013-8-30,75.4,62.3,51.6,55.0,47.8,39.6,92,64,29,30.09,29.99,2,0,5,0.00
2013-8-31,82.4,61.4,43.2,51.6,45.3,40.2,92,61,27,30.16,29.91,1,0,3,0.00
2013-9-1,91.4,72.0,50.2,52.2,46.7,41.2,92,46,18,29.97,29.69,1,0,2,0.00
2013-9-2,88.2,68.6,50.2,53.1,48.4,45.1,83,54,24,29.85,29.74,1,0,5,0.00
2013-9-3,84.9,67.3,54.8,56.0,52.2,47.2,85,62,28,29.97,29.80,4,0,6,0.00
2013-9-4,84.5,67.4,53.6,58.9,52.9,48.7,85,63,34,30.02,29.87,1,0,4,0.00
2013-9-5,85.5,71.0,58.6,60.8,56.1,49.1,89,62,29,29.99,29.77,2,0,7,0.46
2013-9-6,70.3,60.0,55.4,60.1,55.5,50.6,93,85,51,30.10,29.86,1,0,3,1.98
2013-9-7,70.1,59.1,52.9,57.8,53.2,49.7,92,82,52,30.12,30.02,1,0,2,0.23
2013-9-8,84.5,62.8,46.1,55.6,50.3,43.6,93,69,27,30.10,29.90,2,0,5,0.00
2013-9-9,87.4,68.2,53.9,53.2,48.8,33.9,81,54,15,30.00,29.83,2,0,3,0.00
2013-9-10,85.7,65.2,48.5,56.2,49.7,45.4,91,63,25,30.07,29.92,1,0,2,0.00
2013-9-11,89.3,65.8,49.2,55.1,50.0,45.2,92,63,25,30.13,29.96,1,0,3,0.00
2013-9-12,82.8,59.5,49.9,55.1,49.8,46.8,91,74,31,30.08,29.93,0,0,1,0.00
2013-9-13,94.5,78.6,60.1,54.7,50.2,39.1,75,43,16,29.86,29.67,1,0,2,0.00
2013-9-14,90.5,69.4,54.1,57.4,51.7,48.4,84,59,25,29.89,29.75,1,0,2,0.00
2013-9-15,85.3,67.9,53.5,55.1,51.7,43.9,89,61,26,29.83,29.58,6,0,11,0.36
2013-9-16,74.2,60.2,51.4,56.8,50.2,44.5,93,73,35,29.83,29.68,2,0,5,0.04
2013-9-17,69.1,57.3,46.4,50.6,44.9,39.6,91,66,45,29.82,29.67,2,0,7,0.00
2013-9-18,67.8,57.0,44.1,42.1,38.1,34.8,74,50,33,30.08,29.78,2,0,7,0.00
2013-9-19,69.4,50.4,35.5,43.7,38.1,32.3,90,66,33,30.17,29.95,2,0,3,0.00
2013-9-20,73.3,52.3,35.9,48.2,39.9,33.3,92,67,28,29.95,29.57,1,0,2,0.00
2013-9-21,73.0,58.1,48.2,48.6,41.3,35.0,86,57,26,29.65,29.55,3,1,10,0.00
2013-9-22,57.2,48.0,39.6,49.3,41.9,35.2,91,80,55,29.70,29.59,2,0,3,0.08
2013-9-23,59.0,47.3,38.5,48.3,41.2,36.4,93,81,58,29.93,29.70,2,0,3,0.01
2013-9-24,63.9,49.3,39.1,40.9,36.9,31.8,86,66,31,29.93,29.77,3,0,5,0.00
2013-9-25,63.9,50.0,38.6,37.4,33.2,25.3,85,57,25,29.96,29.82,4,1,10,0.00
2013-9-26,59.8,50.8,36.2,43.9,34.1,27.0,87,55,37,30.11,29.95,2,0,4,0.00
2013-9-27,55.9,44.1,32.2,43.4,36.9,29.3,91,78,48,30.10,29.87,2,0,6,0.01
2013-9-28,50.5,46.2,43.2,47.4,43.6,40.9,92,91,88,29.87,29.38,2,0,3,0.90
2013-9-29,55.1,47.2,40.9,47.0,42.7,38.8,93,85,59,29.57,29.29,4,0,6,0.33
2013-9-30,57.3,45.1,37.6,44.0,37.5,32.5,93,77,39,29.84,29.29,4,0,10,0.04
2013-10-1,56.5,40.3,29.1,38.6,32.4,26.5,92,76,39,30.14,29.83,3,0,4,0.01
2013-10-2,45.5,40.1,34.9,39.5,36.3,31.7,91,86,71,30.20,30.13,4,1,5,0.11
2013-10-3,60.1,40.0,32.7,38.4,32.7,30.4,92,77,37,30.49,30.20,2,0,4,0.00
2013-10-4,59.5,41.9,27.6,41.9,33.5,25.1,92,75,34,30.62,30.43,5,0,7,0.01
2013-10-5,58.1,43.3,33.1,47.6,37.3,30.8,92,81,53,30.47,30.33,1,0,3,0.00
2013-10-6,63.1,44.3,30.9,44.3,37.3,28.6,93,79,43,30.33,29.91,5,1,7,0.00
2013-10-7,59.5,45.2,36.0,43.2,36.3,32.9,93,73,43,29.91,29.82,3,0,7,0.00
2013-10-8,56.5,43.0,34.3,43.9,32.4,25.2,92,69,33,30.12,29.87,3,0,8,0.07
2013-10-9,57.8,43.0,30.4,41.6,32.1,27.0,89,68,36,30.22,29.90,2,0,5,0.00
2013-10-10,59.6,45.4,32.4,38.1,31.7,27.6,87,62,30,30.08,29.87,3,0,5,0.00
2013-10-11,55.7,39.1,25.7,37.5,29.1,22.9,92,71,33,30.25,30.08,3,0,6,0.00
2013-10-12,54.4,43.4,33.8,41.0,34.9,30.6,90,74,44,30.22,30.07,2,0,3,0.04
2013-10-13,61.0,44.0,32.5,36.2,31.1,27.3,88,64,28,30.39,30.20,3,0,6,0.00
2013-10-14,59.2,39.0,26.4,36.9,29.4,22.2,86,71,34,30.54,30.38,4,0,6,0.00
2013-10-15,57.6,41.6,27.5,41.9,32.1,23.3,86,71,41,30.52,30.20,3,0,5,0.00
2013-10-16,64.2,48.3,33.8,39.5,34.6,30.3,89,63,32,30.28,30.12,4,1,8,0.00
2013-10-17,62.1,40.4,28.2,37.9,31.1,24.6,89,72,34,30.37,30.24,4,1,7,0.00
2013-10-18,60.1,39.4,27.6,38.8,30.4,23.3,86,73,36,30.42,30.23,3,0,4,0.00
2013-10-19,60.1,39.3,27.5,42.9,31.3,23.3,88,75,38,30.29,30.14,2,0,4,0.00
2013-10-20,70.3,44.9,29.7,45.7,35.3,26.0,89,72,37,30.29,30.09,2,0,4,0.00
2013-10-21,66.9,45.4,31.8,46.1,37.2,28.4,89,75,41,30.29,30.14,2,0,5,0.00
2013-10-22,63.9,43.5,30.9,44.7,35.9,27.2,89,77,43,30.30,30.13,2,0,3,0.00
2013-10-23,62.9,41.9,29.7,44.9,34.4,26.3,88,77,41,30.26,30.13,2,0,3,0.00
2013-10-24,60.5,41.1,28.5,40.6,33.0,24.8,88,75,39,30.25,30.10,2,0,3,0.00
2013-10-25,60.1,42.2,27.0,41.2,33.7,23.7,90,74,40,30.37,30.20,2,0,4,0.00
2013-10-26,57.8,38.4,27.6,38.7,30.8,23.7,88,76,38,30.44,30.10,2,0,3,0.00
2013-10-27,53.8,45.7,32.5,37.0,32.2,28.8,90,62,45,30.10,29.90,4,1,9,0.00
2013-10-28,54.1,44.8,33.4,32.0,26.0,20.7,74,49,28,30.13,29.98,3,1,10,0.00
2013-10-29,50.4,35.3,25.8,29.4,23.6,20.1,82,64,38,30.11,29.98,3,0,5,0.00
2013-10-30,49.2,33.1,22.4,31.5,24.9,17.7,84,73,42,30.17,30.06,3,0,4,0.00
2013-10-31,58.7,44.0,30.1,37.7,30.0,25.2,86,60,39,30.18,30.06,3,1,9,0.00
2013-11-1,51.0,41.9,29.5,35.0,30.1,23.8,81,64,44,30.30,29.96,2,0,4,0.00
2013-11-2,44.9,40.8,37.9,42.1,35.9,29.4,91,83,60,29.96,29.50,3,0,6,0.44
2013-11-3,44.8,36.4,26.4,33.2,26.4,21.3,83,68,39,30.11,29.79,2,0,11,0.00
2013-11-4,45.2,31.4,22.9,24.4,21.0,15.7,84,68,31,30.25,30.11,3,0,6,0.00
2013-11-5,36.9,32.8,27.8,29.7,27.2,23.4,86,80,70,30.30,30.17,4,0,6,0.03
2013-11-6,39.2,34.1,27.8,29.9,28.1,23.6,87,79,66,30.44,30.31,3,1,6,0.01
2013-11-7,35.8,33.6,32.5,32.3,30.3,29.0,89,88,85,30.32,29.82,1,0,2,0.13
2013-11-8,37.0,32.7,27.6,33.9,29.6,24.5,90,88,87,30.26,29.96,1,0,3,0.00
2013-11-9,38.6,32.2,23.3,33.3,27.6,19.2,89,83,65,30.33,30.22,1,0,1,0.01
2013-11-10,38.3,35.7,33.2,34.7,32.1,29.8,89,87,84,30.36,30.21,0,0,1,0.15
2013-11-11,42.6,38.9,35.5,39.2,35.5,32.2,89,88,85,30.46,30.33,0,0,2,0.00
2013-11-12,44.1,41.4,39.2,40.0,38.0,36.3,90,88,85,30.39,30.27,0,0,1,0.00
2013-11-13,49.4,41.6,33.2,41.4,36.3,29.7,90,82,59,30.40,30.31,3,0,4,0.00
2013-11-14,51.1,35.6,27.6,37.2,30.0,24.1,89,81,48,30.30,29.97,2,0,5,0.00
2013-11-15,46.8,39.3,29.7,30.4,26.4,21.5,89,62,41,29.97,29.27,4,1,9,0.03
2013-11-16,47.0,36.1,28.7,32.1,25.8,19.1,88,68,38,29.68,29.25,2,0,6,0.00
2013-11-17,35.2,30.1,25.3,30.0,25.1,22.0,88,82,69,29.93,29.68,1,0,2,0.01
2013-11-18,36.8,30.5,22.1,33.3,27.1,17.7,89,87,83,29.97,29.61,0,0,1,0.10
2013-11-19,47.7,35.6,29.7,38.8,25.4,10.6,92,69,37,30.03,29.56,3,1,7,0.24
2013-11-20,32.2,23.5,13.6,11.0,6.7,-1.0,77,50,24,30.64,30.03,2,1,9,0.00
2013-11-21,31.0,18.2,10.2,12.9,8.8,4.3,79,68,37,30.85,30.64,3,0,5,0.00
2013-11-22,32.7,20.6,12.3,17.3,12.2,6.7,80,70,49,30.97,30.81,1,0,4,0.00
2013-11-23,34.9,22.2,12.1,21.5,14.4,6.0,80,72,49,30.81,30.46,2,0,3,0.00
2013-11-24,34.9,25.0,17.2,21.9,17.8,11.8,82,74,57,30.53,30.42,1,0,2,0.00
2013-11-25,38.9,28.7,21.9,26.3,21.4,16.9,84,74,53,30.57,30.49,1,0,2,0.00
2013-11-26,35.8,25.7,19.2,26.8,20.1,13.9,84,79,64,30.52,30.30,1,0,2,0.00
2013-11-27,38.0,26.4,17.7,27.8,20.8,13.1,85,80,63,30.37,30.23,2,0,3,0.00
2013-11-28,37.8,25.7,16.7,28.5,20.1,11.6,85,79,64,30.33,30.24,1,0,2,0.00
2013-11-29,33.7,27.7,23.9,26.5,23.0,19.5,87,82,74,30.40,30.31,1,0,3,0.00
2013-11-30,32.9,30.6,28.1,27.2,25.6,23.9,86,82,75,30.41,30.22,1,0,2,0.00
2013-12-1,33.7,31.6,30.0,30.0,28.1,26.1,90,87,83,30.22,29.67,1,0,1,0.76
2013-12-2,34.6,26.7,21.3,29.5,19.7,6.9,90,76,53,30.19,29.67,5,1,12,0.00
2013-12-3,25.4,20.7,17.7,7.7,4.4,2.0,55,49,41,30.46,30.19,5,3,12,0.00
2013-12-4,20.0,7.3,-2.8,5.0,-1.4,-9.6,77,68,46,30.58,30.43,3,0,14,0.00
2013-12-5,15.9,1.9,-5.9,3.5,-5.8,-12.9,75,70,51,30.56,30.45,0,0,0,0.00
2013-12-6,17.0,4.1,-6.8,2.7,-4.0,-14.0,76,69,51,30.55,30.43,1,0,2,0.00
2013-12-7,18.0,6.2,-6.8,-6.2,-10.2,-13.7,73,49,27,30.55,30.42,5,2,17,0.00
2013-12-8,17.2,5.7,-5.9,2.8,-4.5,-13.4,75,64,36,30.66,30.51,2,0,3,0.00
2013-12-9,15.2,4.0,-5.0,4.3,-4.1,-12.3,76,69,56,30.69,30.56,3,0,4,0.00
2013-12-10,19.1,6.0,-0.6,6.3,-1.4,-7.5,77,71,55,30.66,30.52,2,0,3,0.00
2013-12-11,21.8,10.9,-0.6,12.7,3.9,-7.6,79,73,64,30.68,30.49,1,0,1,0.00
2013-12-12,26.0,18.4,6.0,17.2,11.8,0.1,81,75,63,30.49,30.26,1,0,2,0.00
2013-12-13,30.9,21.3,16.4,20.4,15.5,11.4,83,79,63,30.56,30.27,3,0,5,0.00
2013-12-14,34.3,24.0,18.8,22.5,18.3,13.7,84,79,61,30.55,30.38,2,0,3,0.00
2013-12-15,31.9,27.9,26.3,27.0,24.0,21.3,90,85,80,30.39,30.27,5,1,10,0.00
2013-12-16,32.9,26.2,21.4,28.5,22.8,18.1,90,87,83,30.51,30.39,1,0,3,0.00
2013-12-17,29.4,26.7,22.1,25.7,23.3,18.8,90,87,84,30.44,30.05,2,0,4,0.00
2013-12-18,39.2,29.3,26.3,27.3,18.9,4.5,90,69,37,30.27,29.95,4,1,15,0.00
2013-12-19,30.4,23.2,12.3,9.7,4.4,-0.0,74,45,28,30.39,30.20,4,1,11,0.00
2013-12-20,21.9,17.0,10.0,15.8,10.9,3.9,81,77,68,30.19,29.77,0,0,2,0.14
2013-12-21,25.8,17.4,5.4,18.6,11.3,-1.1,83,77,67,30.26,29.96,1,0,2,0.00
2013-12-22,30.4,23.7,16.4,23.1,18.5,11.3,85,80,73,30.40,30.25,0,0,2,0.00
2013-12-23,32.7,24.7,16.7,28.0,20.6,12.4,91,84,76,30.48,30.16,3,0,5,0.10
2013-12-24,31.8,17.6,7.6,24.9,12.9,2.2,87,82,74,30.73,30.48,2,0,3,0.00
2013-12-25,27.3,15.3,2.0,21.1,9.7,-4.4,83,78,69,30.77,30.55,1,0,1,0.00
2013-12-26,30.3,20.9,12.1,22.8,15.9,6.4,84,81,72,30.55,30.45,2,0,2,0.00
2013-12-27,28.4,20.0,8.8,24.3,15.7,3.5,88,83,78,30.45,30.22,1,0,2,0.06
2013-12-28,28.2,18.9,8.6,23.3,14.2,3.1,87,82,76,30.65,30.39,1,0,2,0.00
2013-12-29,26.4,21.2,14.3,21.1,16.8,9.4,86,83,80,30.57,30.35,1,0,2,0.00
2013-12-30,27.0,24.5,22.1,21.8,20.1,18.3,86,83,76,30.44,30.23,2,0,3,0.00
2013-12-31,30.9,23.9,12.8,25.3,19.5,7.8,86,83,78,30.50,30.20,4,0,5,0.00
2014-1-1,32.2,22.2,9.9,24.4,16.9,4.4,85,80,70,30.60,30.44,2,0,3,0.00
2014-1-2,31.6,27.6,23.2,26.3,23.3,19.1,87,84,77,30.44,29.88,0,0,2,0.15